ICEYE-X12 (48914 NORAD) Tracking and Keplerian Element Data

This shows tracking and keplerian element data for the satellite.

Feedback or suggestion? Click here.




ElementValue
Catalog48914
NameICEYE-X12
Epoch Orbit18273
Epoch Day286.86059878
Epoch Year2024
RAAN71.6777
Inclination97.6446
Eccentricity0.0002834
Argument of Perigee280.3707
Mean Anonmoly79.7223
Mean Motion15.48361526
Decay Rate0.00136046
L11 48914U 21059AM 24286.86059878 .00136046 00000+0 25317-2 0 9995
L22 48914 97.6446 71.6777 0002834 280.3707 79.7223 15.48361526182735



Live tracking and technical data element details for ICEYE-X12 (NORAD 48914). ICEYE-X12 can be tracked NOW for your location showing map with azimuth and elevation plus other details from your city location.







IsCatalogInMostPopularTable: catalog: 48914, numindb: 146
Update: records affected: 1



GetName: 48914 ICEYE-X12

Hit Count: updated at: Wed, 18 Jun 2025 06:28:18 GMT